N8IR-19 Weather Reports


Display with metric or nautical units.
time (UTC)temp
F
wind
direction
speed
MPH
gust
MPH
rain 1hr
in
rain 24hr
in
rain mn
in
humidity
%
barometer
mb
20201028135616 44 0.0 2.0 0.00 0.23 0.04 70 998.8
20201028135116 44 248 2.0 3.0 0.00 0.23 0.04 70 998.8
20201028134626 44 225 1.0 2.0 0.00 0.23 0.04 70 998.9
20201028134123 44 225 2.0 2.0 0.00 0.23 0.04 70 998.8
20201028133628 44 225 2.0 2.0 0.00 0.23 0.04 71 998.7
20201028133117 44 225 4.0 5.0 0.00 0.23 0.04 71 998.7
20201028132619 44 225 3.0 4.0 0.00 0.23 0.04 71 998.8
20201028132119 44 225 3.0 4.0 0.00 0.23 0.04 71 998.7
20201028131629 44 225 2.0 4.0 0.00 0.23 0.04 71 998.5
20201028131120 44 225 2.0 3.0 0.00 0.23 0.04 71 998.4
20201028130620 44 225 2.0 3.0 0.00 0.23 0.04 71 998.3
20201028130118 44 225 2.0 3.0 0.00 0.23 0.04 71 998.3
20201028125617 44 225 2.0 3.0 0.00 0.23 0.04 71 998.3
20201028125123 44 225 2.0 3.0 0.00 0.23 0.04 71 998.3
20201028124620 44 225 4.0 6.0 0.00 0.23 0.04 71 998.3
20201028124120 44 225 2.0 4.0 0.00 0.23 0.04 71 998.4
20201028123626 44 225 4.0 5.0 0.00 0.23 0.04 71 998.3
20201028123117 44 225 2.0 3.0 0.00 0.23 0.04 71 998.3
20201028122616 44 225 2.0 2.0 0.00 0.23 0.04 71 998.1
20201028122118 44 225 2.0 3.0 0.00 0.23 0.04 71 998.2
20201028121617 44 225 1.0 2.0 0.00 0.23 0.04 71 998.2
20201028121127 44 225 2.0 3.0 0.00 0.23 0.04 71 998.2
20201028120617 44 248 1.0 2.0 0.00 0.23 0.04 71 998.2
20201028120127 44 0.0 1.0 0.00 0.23 0.04 71 998.3
20201028115619 44 0.0 1.0 0.00 0.23 0.04 71 998.2
20201028115118 44 248 1.0 2.0 0.00 0.23 0.04 71 998.1
20201028114619 44 248 1.0 2.0 0.00 0.23 0.04 71 998.2
20201028114120 44 0.0 1.0 0.00 0.23 0.04 71 998.1
20201028113618 44 0.0 1.0 0.00 0.23 0.04 71 998.2
20201028113125 44 0.0 1.0 0.00 0.23 0.04 71 998.2
20201028112618 44 0.0 1.0 0.00 0.23 0.04 71 998.2
20201028112125 44 225 2.0 3.0 0.00 0.23 0.04 71 998.3
20201028111619 44 225 2.0 2.0 0.00 0.23 0.04 71 998.3
20201028111123 44 248 2.0 2.0 0.00 0.23 0.04 71 998.4
20201028110618 44 225 2.0 3.0 0.00 0.23 0.04 71 998.5
20201028110155 44 225 1.0 2.0 0.00 0.23 0.04 71 998.4
20201028105618 44 225 1.0 2.0 0.00 0.23 0.04 72 998.4
20201028105119 43 0.0 1.0 0.00 0.23 0.04 72 998.4
20201028104621 43 0.0 1.0 0.00 0.23 0.04 72 998.4
20201028104118 43 0.0 1.0 0.00 0.23 0.04 72 998.4
20201028103618 43 248 1.0 2.0 0.00 0.23 0.04 72 998.4
20201028103120 43 0.0 1.0 0.00 0.23 0.04 72 998.4
20201028102620 43 248 1.0 2.0 0.00 0.23 0.04 72 998.5
20201028102117 43 293 2.0 3.0 0.00 0.23 0.04 72 998.5
20201028101628 43 270 1.0 2.0 0.00 0.23 0.04 72 998.4
20201028101128 43 0.0 1.0 0.00 0.23 0.04 72 998.3
20201028100618 43 0.0 0.0 0.00 0.23 0.04 72 998.2
20201028100123 43 248 1.0 2.0 0.00 0.23 0.04 72 997.9
20201028095639 43 225 3.0 4.0 0.00 0.23 0.04 72 997.8
20201028095123 43 225 2.0 3.0 0.00 0.23 0.04 72 997.7
20201028094618 43 225 1.0 2.0 0.00 0.23 0.04 72 997.6
20201028094119 43 225 5.0 8.0 0.00 0.23 0.04 72 997.6
20201028093620 43 225 5.0 7.0 0.00 0.23 0.04 72 997.6
20201028093121 43 203 6.0 9.0 0.00 0.23 0.04 72 997.6
20201028092618 43 225 5.0 6.0 0.00 0.23 0.04 71 997.8
20201028092118 43 225 2.0 3.0 0.00 0.23 0.04 71 998.1
20201028091621 43 248 1.0 2.0 0.00 0.23 0.04 71 998.0
20201028091117 43 225 1.0 2.0 0.00 0.23 0.04 71 998.1
20201028090625 43 0.0 1.0 0.00 0.23 0.04 71 998.2
20201028090119 43 0.0 1.0 0.00 0.23 0.04 71 998.3
20201028085623 43 225 1.0 3.0 0.00 0.23 0.04 71 998.2
20201028085119 43 225 1.0 2.0 0.00 0.23 0.04 71 998.2
20201028084619 43 225 1.0 2.0 0.01 0.23 0.04 71 998.3
20201028084118 43 225 1.0 1.0 0.01 0.23 0.04 71 998.3
20201028083624 43 225 2.0 3.0 0.01 0.23 0.04 71 998.2
20201028083120 43 225 1.0 2.0 0.01 0.23 0.04 71 998.3
20201028082618 43 225 1.0 3.0 0.01 0.23 0.04 72 998.3
20201028082117 43 0.0 2.0 0.01 0.23 0.04 71 998.5
20201028081627 43 225 1.0 2.0 0.01 0.23 0.04 72 998.5
20201028081118 43 0.0 0.0 0.01 0.23 0.04 71 998.6
20201028080618 43 0.0 0.0 0.01 0.23 0.04 71 998.8
20201028080118 43 0.0 0.0 0.01 0.23 0.04 71 998.8
20201028075617 43 225 1.0 1.0 0.02 0.23 0.04 71 998.7
20201028075118 43 225 1.0 2.0 0.02 0.23 0.04 71 998.6
20201028074618 43 225 1.0 2.0 0.01 0.22 0.03 71 998.6
20201028074126 43 225 1.0 3.0 0.01 0.22 0.03 71 998.7
20201028073618 43 225 1.0 2.0 0.01 0.22 0.03 71 998.7
20201028073118 43 0.0 1.0 0.01 0.22 0.03 71 998.9
20201028072618 43 225 1.0 2.0 0.01 0.22 0.03 71 999.1
20201028072120 43 225 1.0 3.0 0.01 0.22 0.03 71 999.1
20201028071619 43 225 1.0 2.0 0.01 0.22 0.03 71 999.1
20201028071118 43 270 1.0 2.0 0.01 0.22 0.03 71 999.0
20201028070618 43 270 1.0 2.0 0.01 0.22 0.03 71 999.1
20201028070125 43 0.0 1.0 0.01 0.22 0.03 71 999.2
20201028065617 43 293 1.0 1.0 0.00 0.21 0.02 71 999.1
20201028065121 43 0.0 1.0 0.00 0.21 0.02 71 999.1
20201028064619 43 0.0 0.0 0.00 0.21 0.02 71 999.0
20201028064123 43 0.0 1.0 0.00 0.21 0.02 71 999.1
20201028063617 43 0.0 0.0 0.00 0.21 0.02 71 999.0
20201028063127 43 0.0 0.0 0.00 0.21 0.02 71 999.0
20201028062617 43 0.0 1.0 0.00 0.21 0.02 71 998.9
20201028062121 43 0.0 1.0 0.00 0.21 0.02 71 999.0
20201028061618 43 0.0 1.0 0.00 0.21 0.02 71 999.1
20201028061118 43 0.0 0.0 0.00 0.21 0.02 71 999.0
20201028060618 43 0.0 0.0 0.00 0.21 0.02 71 999.3
20201028060119 43 0.0 1.0 0.01 0.21 0.02 71 999.3
20201028055624 43 0.0 1.0 0.01 0.21 0.02 71 999.5
20201028055117 43 0.0 1.0 0.01 0.21 0.02 71 999.6
20201028054618 43 0.0 1.0 0.01 0.21 0.02 71 999.5
20201028054118 43 0.0 0.0 0.01 0.21 0.02 71 999.7
20201028053621 43 0.0 1.0 0.01 0.21 0.02 71 999.7
20201028053119 43 0.0 0.0 0.02 0.21 0.02 71 999.6
20201028052617 43 0.0 0.0 0.02 0.21 0.02 71 999.8
20201028052117 43 225 1.0 1.0 0.02 0.21 0.02 71 999.6
20201028051619 43 0.0 1.0 0.02 0.21 0.02 71 999.5
20201028051132 43 0.0 0.0 0.02 0.21 0.02 71 999.5
20201028050617 43 0.0 0.0 0.02 0.21 0.02 70 999.5
20201028050126 43 0.0 0.0 0.01 0.20 0.01 71 999.4
20201028045621 43 0.0 0.0 0.01 0.20 0.01 70 999.3
20201028045118 43 225 2.0 2.0 0.01 0.20 0.01 71 999.4
20201028044618 43 225 1.0 1.0 0.01 0.20 0.01 70 999.4
20201028044120 43 225 1.0 2.0 0.02 0.20 0.01 70 999.6
20201028043624 43 225 1.0 2.0 0.02 0.20 0.01 70 999.7
20201028043120 43 225 2.0 3.0 0.01 0.19 0.00 70 999.6
20201028042617 43 225 1.0 1.0 0.01 0.19 0.00 70 999.7
20201028042122 43 225 3.0 5.0 0.01 0.19 0.00 70 999.8
20201028041620 43 225 2.0 3.0 0.01 0.19 0.00 70 1000.2
20201028041117 43 225 1.0 2.0 0.01 0.19 0.00 70 1000.1
20201028040618 43 225 3.0 4.0 0.02 0.19 0.00 70 999.9
20201028040117 43 203 2.0 3.0 0.02 0.19 0.00 70 999.9
20201028035620 43 225 3.0 5.0 0.02 0.19 0.19 70 1000.1
20201028035124 43 225 4.0 4.0 0.02 0.19 0.19 70 1000.3
20201028034626 43 203 3.0 4.0 0.02 0.19 0.19 70 1000.3
20201028034118 43 225 4.0 5.0 0.01 0.18 0.18 70 1000.5
20201028033617 43 225 4.0 5.0 0.01 0.18 0.18 70 1000.4
20201028033131 43 203 2.0 4.0 0.02 0.18 0.18 69 1000.3
20201028032619 43 225 3.0 5.0 0.02 0.18 0.18 69 1000.4
20201028032123 43 203 3.0 5.0 0.03 0.18 0.18 69 1000.3
20201028031622 43 203 3.0 4.0 0.03 0.18 0.18 69 1000.4
20201028031117 43 225 2.0 4.0 0.04 0.18 0.17 69 1000.5
20201028030617 43 203 2.0 3.0 0.03 0.17 0.17 69 1000.5
20201028030119 43 203 1.0 3.0 0.03 0.17 0.17 69 1000.6
20201028025627 43 203 2.0 3.0 0.03 0.17 0.17 69 1000.5
20201028025124 43 225 3.0 4.0 0.03 0.17 0.17 69 1000.6
20201028024623 43 203 4.0 6.0 0.03 0.17 0.17 69 1000.7
20201028024119 43 225 4.0 5.0 0.04 0.17 0.17 69 1000.8
20201028023617 43 225 4.0 5.0 0.04 0.17 0.17 69 1000.8
20201028023119 43 225 4.0 5.0 0.03 0.16 0.16 68 1001.0
20201028022621 43 225 1.0 2.0 0.03 0.16 0.16 68 1000.9
20201028022119 43 225 2.0 3.0 0.02 0.15 0.15 68 1000.8
20201028021621 43 225 1.0 2.0 0.03 0.15 0.15 68 1001.1
20201028021128 43 0.0 1.0 0.03 0.14 0.14 68 1001.3
20201028020618 43 225 1.0 2.0 0.03 0.14 0.14 68 1001.4
20201028020120 43 0.0 1.0 0.03 0.14 0.14 68 1001.4
20201028015621 43 225 1.0 2.0 0.03 0.14 0.14 68 1001.4
20201028015123 43 225 1.0 2.0 0.03 0.14 0.14 68 1001.5
20201028014621 43 225 1.0 1.0 0.03 0.14 0.14 68 1001.2
20201028014121 43 225 1.0 2.0 0.02 0.13 0.13 68 1001.1
20201028013617 43 225 1.0 1.0 0.02 0.13 0.13 68 1001.2
20201028013118 43 0.0 0.0 0.02 0.13 0.13 68 1001.3
20201028012617 43 0.0 1.0 0.02 0.13 0.13 68 1001.2
20201028012130 43 225 2.0 3.0 0.02 0.13 0.13 68 1001.1
20201028011619 43 203 2.0 2.0 0.01 0.12 0.12 68 1000.9
20201028011119 43 225 2.0 3.0 0.00 0.11 0.11 68 1001.1
20201028010620 43 0.0 0.0 0.00 0.11 0.11 68 1001.2
20201028010120 43 0.0 0.0 0.00 0.11 0.11 68 1001.2
20201028005617 43 0.0 0.0 0.00 0.11 0.11 68 1001.2
20201028005117 43 0.0 0.0 0.00 0.11 0.11 67 1001.2
20201028004624 43 0.0 0.0 0.00 0.11 0.11 67 1001.3
20201028004122 43 0.0 0.0 0.00 0.11 0.11 67 1001.5
20201028003620 43 315 2.0 3.0 0.00 0.11 0.11 67 1001.6
20201028003119 43 203 1.0 1.0 0.00 0.11 0.11 67 1001.4
20201028002621 43 203 1.0 2.0 0.00 0.11 0.11 67 1001.0
20201028002119 43 0.0 1.0 0.00 0.11 0.11 67 1001.0
20201028001619 43 0.0 0.0 0.00 0.11 0.11 67 1000.9
20201028001117 43 0.0 1.0 0.00 0.11 0.11 67 1000.9
20201028000618 43 203 1.0 2.0 0.00 0.11 0.11 67 1001.0
20201028000133 43 203 1.0 2.0 0.00 0.12 0.11 67 1001.0
20201027235617 43 0.0 1.0 0.00 0.12 0.11 67 1001.0
20201027235118 43 180 1.0 2.0 0.01 0.12 0.11 67 1001.1
20201027234630 43 180 3.0 4.0 0.01 0.12 0.11 67 1001.3
20201027234117 43 225 1.0 1.0 0.02 0.13 0.11 67 1001.3
20201027233618 43 225 1.0 2.0 0.02 0.13 0.11 67 1001.3
20201027233121 43 225 1.0 3.0 0.03 0.14 0.11 67 1001.5
20201027232619 43 225 1.0 2.0 0.03 0.14 0.11 67 1001.5
20201027232117 43 203 1.0 1.0 0.03 0.15 0.11 67 1001.5
20201027231618 43 203 1.0 2.0 0.04 0.15 0.11 67 1001.6
20201027231117 43 203 2.0 4.0 0.04 0.15 0.11 67 1001.6
20201027230617 43 0.0 1.0 0.05 0.15 0.11 67 1001.6
20201027230130 43 0.0 0.0 0.05 0.15 0.11 67 1001.6
20201027225617 43 0.0 0.0 0.06 0.15 0.11 67 1001.7
20201027225119 43 0.0 0.0 0.05 0.14 0.10 67 1001.8
20201027224617 43 23 1.0 2.0 0.05 0.14 0.10 67 1001.7
20201027224145 43 23 2.0 2.0 0.04 0.13 0.09 67 1001.8
20201027223617 43 45 3.0 4.0 0.04 0.13 0.09 67 1001.8
20201027223118 42 23 3.0 4.0 0.03 0.12 0.08 67 1001.9
20201027222621 42 0.0 1.0 0.04 0.12 0.08 67 1002.0
20201027222127 42 0.0 0.0 0.04 0.12 0.08 67 1002.1
20201027221620 42 0.0 0.0 0.03 0.11 0.07 66 1002.1
20201027221117 42 315 1.0 2.0 0.03 0.11 0.07 66 1002.1
20201027220620 42 0.0 1.0 0.03 0.10 0.06 66 1002.2
20201027220122 42 293 2.0 4.0 0.03 0.10 0.06 66 1002.3
20201027215621 42 293 2.0 3.0 0.02 0.09 0.05 66 1002.8
20201027215117 42 338 4.0 10.0 0.02 0.09 0.05 66 1003.0
20201027214634 43 338 7.0 10.0 0.03 0.09 0.05 66 1003.1
20201027214129 43 338 3.0 6.0 0.03 0.09 0.05 66 1003.1
20201027213619 43 315 7.0 9.0 0.03 0.09 0.05 66 1002.8
20201027213119 43 338 5.0 8.0 0.03 0.09 0.05 67 1002.7
20201027212616 43 338 6.0 8.0 0.03 0.08 0.04 66 1002.7
20201027212117 43 293 3.0 5.0 0.03 0.08 0.04 66 1002.4
20201027211618 43 0 5.0 8.0 0.03 0.08 0.04 67 1002.3
20201027211124 43 0 6.0 8.0 0.03 0.08 0.04 67 1002.4
20201027210621 43 315 5.0 8.0 0.02 0.07 0.03 67 1002.6
20201027210120 43 293 3.0 6.0 0.02 0.07 0.03 66 1002.7
20201027205619 43 315 3.0 5.0 0.02 0.07 0.03 66 1002.9
20201027205125 43 293 2.0 4.0 0.02 0.07 0.03 66 1002.7
20201027204617 43 293 4.0 5.0 0.01 0.06 0.02 66 1002.9
20201027204121 43 315 4.0 7.0 0.01 0.06 0.02 66 1002.9
20201027203617 44 315 7.0 11.0 0.02 0.06 0.02 66 1002.8
20201027203117 44 338 6.0 8.0 0.02 0.06 0.02 66 1002.7
20201027202622 44 0 6.0 8.0 0.01 0.05 0.01 67 1002.7
20201027202116 44 23 2.0 3.0 0.01 0.05 0.01 67 1002.6
20201027201617 44 315 3.0 5.0 0.01 0.05 0.01 67 1002.7
20201027201117 44 293 5.0 7.0 0.01 0.05 0.01 67 1002.7
20201027200616 44 293 3.0 4.0 0.01 0.05 0.01 67 1002.6
20201027200117 44 293 3.0 7.0 0.01 0.05 0.01 67 1002.4
20201027195617 44 293 3.0 4.0 0.01 0.05 0.01 67 1002.5
20201027195117 44 315 2.0 3.0 0.01 0.05 0.01 68 1002.5
20201027194618 44 315 2.0 3.0 0.01 0.05 0.01 68 1002.5
20201027194123 44 293 3.0 4.0 0.01 0.05 0.01 67 1002.4
20201027193619 44 293 2.0 4.0 0.00 0.04 0.00 67 1002.5
20201027193123 44 315 2.0 4.0 0.00 0.04 0.00 67 1002.5
20201027192616 44 293 2.0 4.0 0.00 0.04 0.00 66 1002.7
20201027192120 45 293 2.0 3.0 0.00 0.04 0.00 65 1002.8
20201027191621 45 270 3.0 4.0 0.00 0.04 0.00 64 1002.6
20201027191117 45 315 3.0 4.0 0.00 0.04 0.00 63 1002.7
20201027190618 46 338 4.0 7.0 0.00 0.04 0.00 62 1002.9
20201027190117 46 338 4.0 6.0 0.00 0.04 0.00 62 1002.9
20201027185617 45 293 3.0 4.0 0.00 0.04 0.00 61 1002.7
20201027185116 45 315 3.0 5.0 0.00 0.04 0.00 61 1002.5
20201027184622 45 338 2.0 4.0 0.00 0.04 0.00 61 1002.4
20201027184118 45 0.0 0.0 0.00 0.04 0.00 61 1002.4
20201027183616 45 293 1.0 2.0 0.00 0.04 0.00 61 1002.6
20201027183132 45 293 1.0 2.0 0.00 0.04 0.00 61 1002.7
20201027182621 45 0.0 0.0 0.00 0.04 0.00 61 1002.8
20201027182120 45 0.0 1.0 0.00 0.04 0.00 61 1003.0
20201027181617 45 315 1.0 2.0 0.00 0.04 0.00 61 1002.9
20201027181120 45 293 1.0 3.0 0.00 0.04 0.00 61 1003.0
20201027180616 45 0.0 0.0 0.00 0.04 0.00 61 1003.2
20201027180209 45 293 1.0 1.0 0.00 0.04 0.00 61 1003.1
20201027175619 45 0.0 1.0 0.00 0.04 0.00 61 1003.1
20201027175116 45 0.0 1.0 0.00 0.04 0.00 61 1003.0
20201027174620 46 0.0 0.0 0.00 0.04 0.00 61 1003.0
20201027174120 46 0.0 1.0 0.00 0.04 0.00 61 1002.9
20201027173618 46 293 1.0 2.0 0.00 0.04 0.00 61 1003.0
20201027173117 46 0.0 1.0 0.00 0.04 0.00 61 1003.2
20201027172622 46 0.0 0.0 0.00 0.04 0.00 60 1003.1
20201027172116 46 0.0 1.0 0.00 0.04 0.00 60 1003.4
20201027171621 46 293 1.0 2.0 0.00 0.04 0.00 59 1003.3
20201027171130 46 0.0 1.0 0.00 0.04 0.00 59 1003.4
20201027170620 46 0.0 1.0 0.00 0.04 0.00 58 1003.5
20201027170139 46 293 1.0 2.0 0.00 0.04 0.00 58 1003.8
20201027165619 46 315 1.0 3.0 0.00 0.04 0.00 58 1003.4
20201027165116 46 315 1.0 2.0 0.00 0.04 0.00 58 1003.5
20201027164618 46 293 2.0 3.0 0.00 0.04 0.00 58 1004.0
20201027164118 46 293 1.0 1.0 0.00 0.04 0.00 60 1004.1
20201027163619 46 0.0 0.0 0.00 0.04 0.00 59 1003.9
20201027163135 46 0.0 1.0 0.00 0.04 0.00 60 1004.1
20201027162616 46 0.0 1.0 0.00 0.05 0.00 60 1003.7
20201027162122 46 0.0 0.0 0.00 0.05 0.00 60 1003.7
20201027161622 46 0.0 1.0 0.00 0.05 0.00 61 1004.1
20201027161116 46 0.0 1.0 0.00 0.05 0.00 61 1004.2
20201027160623 46 0.0 0.0 0.00 0.05 0.00 61 1004.6
20201027160123 45 0.0 0.0 0.00 0.05 0.00 61 1004.6
20201027155618 45 0.0 0.0 0.00 0.05 0.00 62 1004.6
20201027155116 45 0.0 0.0 0.00 0.05 0.00 61 1004.7
20201027154625 45 0.0 0.0 0.00 0.05 0.00 62 1004.5
20201027154117 45 0.0 0.0 0.00 0.05 0.00 62 1004.6
20201027153616 45 225 2.0 2.0 0.00 0.05 0.00 62 1004.6
20201027153117 45 203 1.0 2.0 0.00 0.05 0.00 62 1004.4
20201027152622 45 203 2.0 3.0 0.00 0.05 0.00 63 1004.6
20201027152125 45 225 3.0 3.0 0.00 0.05 0.00 63 1004.8
20201027151624 45 225 4.0 5.0 0.00 0.05 0.00 62 1004.9
20201027151131 45 225 3.0 6.0 0.00 0.05 0.00 62 1004.8
20201027150616 45 203 2.0 2.0 0.00 0.05 0.00 62 1004.8
20201027150122 45 203 1.0 2.0 0.00 0.05 0.00 62 1004.7
20201027145619 45 225 1.0 1.0 0.00 0.05 0.00 62 1004.8
20201027145120 45 225 3.0 4.0 0.00 0.05 0.00 61 1004.9
20201027144618 45 225 3.0 4.0 0.00 0.05 0.00 61 1004.8
20201027144117 45 0.0 1.0 0.00 0.05 0.00 61 1004.8
20201027143616 45 225 1.0 2.0 0.00 0.05 0.00 62 1005.0
20201027143122 45 225 1.0 2.0 0.00 0.05 0.00 62 1005.0
20201027142616 45 225 2.0 3.0 0.00 0.05 0.00 62 1005.0
20201027142117 45 225 2.0 3.0 0.00 0.05 0.00 62 1005.0
20201027141617 45 225 1.0 1.0 0.00 0.05 0.00 63 1005.0
20201027141116 45 0.0 0.0 0.00 0.05 0.00 63 1005.2
20201027140616 45 0.0 1.0 0.00 0.05 0.00 62 1005.3
20201027140120 45 0.0 1.0 0.00 0.05 0.00 62 1005.2